CZ-6A DEB, 55232

Orbit data source: Space-Track

CZ-6A DEB, 55232 is space debris in SSO originally from a launch on Fri, 11 Nov 2022 UTC launched from the Taiyaun Space Center, China (TSC). Debris objects in space refer to the collection of defunct objects orbiting the Earth. Examples of debris include non-operational satellites, rocket bodies, and fragments generated from explosions, collisions, or faulty payload assembly.

Loading next visibility...
Identifier
55232, 2022-151WZ
Orbit
SSO
Country
Flag of CNCN / PRC
Related business
Manufacturer
SAST
Mission
Spacecraft
Bus & Motor
Unknown
Mass
Unknown
Launch date (UTC)
2022-11-11 (3 years ago)
Launch vehicle
Unknown
Launch site
Taiyaun Space Center, China (TSC)
Object type
Payload
Rocket body
Debris
Shape & HBR
Unknown shape, 0.1 m
Radar Cross Section
Small (<0.1 m²)

Expand to show TLE details & history
Last TLE update: 16 hours ago

TLE from 16 hours ago
0 CZ-6A DEB
1 55232U 22151WZ  26130.18852246  .00004687  00000-0  70318-3 0  9993
2 55232  98.6233 202.9849 0076770   5.9139 354.2955 14.73122554179776
Epoch: 2026-05-10T04:31Z
TLE epoch observation values (Epoch: 2026-05-10T04:31:28.340Z)
Latitude
-0.00006°
Longitude
-92.87836°
Altitude
600.404 km
Speed
7.588 km/s
True Right ascension
13h 31m 56s
True Declination
0° 00' 00"
Sunlit
Object was in full shadow at epoch
Visualization orbit readout
Latitude
Unknown
Longitude
Unknown
Altitude
Unknown
Speed
Unknown
Apparent Right ascension
Unknown
Apparent Declination
Unknown
Sunlit
N/A
Visualization observer readout
Local Sidereal Time
04:33:34
Azimuth
Unknown
Elevation
Unknown
Doppler factor
Unknown
Orbital elements
Apogee altitude
702.142 km
Perigee altitude
594.26 km
Semi-major axis
7,026.338 km
Eccentricity
0.00768
Inclination
98.6233°
RAAN
202.9849°
Arg. of periapsis
5.9139°
True anomaly
354.20722°
Mean anomaly
354.2955°
Eccentric anomaly
354.25144°
Mean motion
3.6851 °/min
Orbital period
97.69 mins
BSTAR
0.00070318
Loading maneuver chart data...
Computing Atmospheric mass density...
Loading historical data...
Loading historical data...
Loading historical data...
Loading historical data...
Loading historical data...
Loading historical data...
Loading historical data...

Documentation

Showing up to 5 results
|